Date,TemperatureHighF,TemperatureAvgF,TemperatureLowF,DewpointHighF,DewpointAvgF,DewpointLowF,HumidityHigh,HumidityAvg,HumidityLow,PressureMaxIn,PressureMinIn,WindSpeedMaxMPH,WindSpeedAvgMPH,GustSpeedMaxMPH,PrecipitationSumIn
2013-3-1,44,29,12,-100,-100,-100,0,0,100,0.00,40.00,0,-999,0,0.00
2013-3-2,46,36,25,-100,-100,-100,0,0,100,0.00,40.00,0,-999,0,0.00
2013-3-3,35,30,22,-100,-100,-100,0,0,100,0.00,40.00,0,-999,0,0.01
2013-3-4,19,12,1,-100,-100,-100,0,0,100,0.00,40.00,0,-999,0,0.01
2013-3-5,37,25,1,-100,-100,-100,0,0,100,0.00,40.00,0,-999,0,0.01
2013-3-6,37,30,23,-100,-100,-100,0,0,100,0.00,40.00,0,-999,0,0.01
2013-3-7,36,29,23,-100,-100,-100,0,0,100,0.00,40.00,0,-999,0,0.01
2013-3-8,42,30,23,-100,-100,-100,0,0,100,0.00,40.00,0,-999,0,0.00
2013-3-9,28,22,15,-100,-100,-100,0,0,100,0.00,40.00,0,-999,0,0.00
2013-3-10,44,28,9,-100,-100,-100,0,0,100,0.00,40.00,0,-999,0,0.00
2013-3-11,35,29,23,-100,-100,-100,0,0,100,0.00,40.00,0,-999,0,0.00
2013-3-12,42,27,10,-100,-100,-100,0,0,100,0.00,40.00,0,-999,0,0.00
2013-3-13,45,37,28,-100,-100,-100,0,0,100,0.00,40.00,0,-999,0,0.01
2013-3-14,46,39,31,-100,-100,-100,0,0,100,0.00,40.00,0,-999,0,0.00
2013-3-15,49,40,28,-100,-100,-100,0,0,100,0.00,40.00,0,-999,0,0.00
2013-3-16,43,32,25,-100,-100,-100,0,0,100,0.00,40.00,0,-999,0,0.00
2013-3-17,29,19,11,-100,-100,-100,0,0,100,0.00,40.00,0,-999,0,0.01
2013-3-18,25,17,9,-100,-100,-100,0,0,100,0.00,40.00,0,-999,0,0.00
2013-3-19,37,23,13,-100,-100,-100,0,0,100,0.00,40.00,0,-999,0,0.00
2013-3-20,33,28,15,-100,-100,-100,0,0,100,0.00,40.00,0,-999,0,0.01
2013-3-21,32,24,11,-100,-100,-100,0,0,100,0.00,40.00,0,-999,0,0.01
2013-3-22,18,11,-1,-100,-100,-100,0,0,100,0.00,40.00,0,-999,0,0.01
2013-3-23,18,7,-5,-100,-100,-100,0,0,100,0.00,40.00,0,-999,0,0.02
2013-3-24,16,3,-9,-100,-100,-100,0,0,100,0.00,40.00,0,-999,0,0.01
2013-3-25,28,12,-7,-100,-100,-100,0,0,100,0.00,40.00,0,-999,0,0.00
2013-3-26,34,27,14,-100,-100,-100,0,0,100,0.00,40.00,0,-999,0,0.01
2013-3-27,40,27,15,-100,-100,-100,0,0,100,0.00,40.00,0,-999,0,0.01
2013-3-28,47,33,19,-100,-100,-100,0,0,100,0.00,40.00,0,-999,0,0.00
2013-3-29,47,38,28,-100,-100,-100,0,0,100,0.00,40.00,0,-999,0,0.00
2013-3-30,44,35,26,-100,-100,-100,0,0,100,0.00,40.00,0,-999,0,0.00
2013-3-31,53,38,27,-100,-100,-100,0,0,100,0.00,40.00,0,-999,0,0.00